Printer-friendly version

IAU Minor Planet Center

Minor Planet Center

MPEC 2002-C32 : 2002 CZ9

The following Minor Planet Electronic Circular may be linked-to from your own Web pages, but must not otherwise be redistributed electronically.


Read MPEC 2002-C31 Read MPEC 2002-C33


M.P.E.C. 2002-C32                                Issued 2002 Feb. 7, 23:42 UT

     The Minor Planet Electronic Circulars contain information on unusual
         minor planets and routine data on comets.  They are published
   on behalf of Commission 20 of the International Astronomical Union by the
          Minor Planet Center, Smithsonian Astrophysical Observatory,
                          Cambridge, MA 02138, U.S.A.

             Prepared using the Tamkin Foundation Computer Network

                              MPC@CFA.HARVARD.EDU
          URL http://cfa-www.harvard.edu/iau/mpc.html  ISSN 1523-6714

                                   2002 CZ9

Observations:
     K02C09Z* C2002 02 06.17869 07 55 11.33 +15 38 18.2          19.3        644
     K02C09Z  C2002 02 06.19956 07 55 06.60 +15 38 58.5          19.3        644
     K02C09Z  C2002 02 06.22053 07 55 01.78 +15 39 38.9          19.8        644
     K02C09Z  C2002 02 06.95171 07 52 23.56 +16 02 54.5          19.3 R      966
     K02C09Z  C2002 02 06.96719 07 52 19.99 +16 03 24.5          19.3 R      966
     K02C09Z  C2002 02 07.17002 07 51 37.40 +16 10 17.8          19.9        644
     K02C09Z  C2002 02 07.18056 07 51 34.92 +16 10 39.0          19.0        644
     K02C09Z  C2002 02 07.19106 07 51 32.44 +16 11 00.4          19.3        644
     K02C09Z  C2002 02 07.21810 07 51 25.32 +16 11 54.5          19.0 R      448
     K02C09Z  C2002 02 07.22517 07 51 23.70 +16 12 08.2          18.8 R      448
     K02C09Z  C2002 02 07.23149 07 51 22.22 +16 12 20.4          19.1 R      448

Observer details:
448 Desert Moon Observatory.  Observer B. Stevens.  0.30-m f/6.3
    Schmidt-Cassegrain + CCD.
644 Palomar Mountain/NEAT.  Observers E. F. Helin, S. Pravdo, K. Lawrence,
    M. Hicks, E. Hovland, T. Bickler, J. Schroeder, L. Scherr, R. Thicksten,
    A. Deetz.  1.2-m Schmidt + CCD.
966 Church Stretton.  Observer S. P. Laurie.  0.35-m f/11 Schmidt-Cassegrain
    + CCD.

Orbital elements:
2002 CZ9                                                             PHA 0.024
Epoch 2002 Jan. 26.0 TT = JDT 2452300.5                 MPC
M 303.09070              (2000.0)            P               Q
n   0.64799328     Peri.   81.27006     -0.71350622     +0.69865630
a   1.3225813      Node   143.02102     -0.67239838     -0.66160536
e   0.3600936      Incl.    5.03612     -0.19694996     -0.27231914
P   1.52           H   21.6           G   0.15
From 11 observations 2002 Feb. 6-7.

Ephemeris:
2002 CZ9                 a,e,i = 1.32, 0.36, 5                   q = 0.8463
Date    TT    R. A. (2000) Decl.     Delta      r     Elong.  Phase     V
2002 01 26    08 26.14   +11 11.1    0.233    1.216   172.2     6.3    19.3
2002 01 27    08 23.99   +11 28.7    0.227    1.210   172.3     6.3    19.3
2002 01 28    08 21.72   +11 47.5    0.221    1.204   172.0     6.5    19.2
2002 01 29    08 19.35   +12 07.4    0.215    1.198   171.4     7.1    19.2
2002 01 30    08 16.85   +12 28.5    0.210    1.193   170.5     7.8    19.1
2002 01 31    08 14.24   +12 50.8    0.205    1.187   169.5     8.7    19.1
2002 02 01    08 11.50   +13 14.5    0.199    1.181   168.2     9.8    19.1
2002 02 02    08 08.63   +13 39.4    0.194    1.175   166.8    11.0    19.1
2002 02 03    08 05.63   +14 05.7    0.189    1.170   165.3    12.3    19.1
2002 02 04    08 02.49   +14 33.4    0.184    1.164   163.7    13.7    19.0
2002 02 05    07 59.21   +15 02.4    0.180    1.158   162.0    15.2    19.0
2002 02 06    07 55.79   +15 33.0    0.175    1.152   160.3    16.8    19.0
2002 02 07    07 52.22   +16 05.0    0.170    1.147   158.5    18.4    19.0
2002 02 08    07 48.49   +16 38.5    0.166    1.141   156.6    20.1    19.0
2002 02 09    07 44.61   +17 13.5    0.162    1.135   154.6    21.9    19.0
2002 02 10    07 40.55   +17 50.0    0.158    1.129   152.6    23.7    19.0
2002 02 11    07 36.33   +18 28.1    0.154    1.123   150.6    25.5    19.0
2002 02 12    07 31.93   +19 07.7    0.150    1.118   148.5    27.5    18.9
2002 02 13    07 27.35   +19 48.9    0.146    1.112   146.4    29.5    18.9
2002 02 14    07 22.57   +20 31.7    0.142    1.106   144.2    31.5    18.9
2002 02 15    07 17.60   +21 16.0    0.139    1.100   141.9    33.6    18.9
2002 02 16    07 12.41   +22 01.8    0.136    1.095   139.6    35.8    18.9
2002 02 17    07 07.00   +22 49.1    0.132    1.089   137.3    38.0    18.9
2002 02 18    07 01.36   +23 37.8    0.129    1.083   134.9    40.3    18.9
2002 02 19    06 55.47   +24 28.0    0.126    1.078   132.4    42.6    18.9
2002 02 20    06 49.32   +25 19.5    0.123    1.072   130.0    45.0    18.9
2002 02 21    06 42.89   +26 12.3    0.120    1.066   127.4    47.5    18.9
2002 02 22    06 36.17   +27 06.2    0.118    1.061   124.8    50.0    18.9
2002 02 23    06 29.12   +28 01.1    0.115    1.055   122.2    52.5    19.0
2002 02 24    06 21.74   +28 57.0    0.113    1.050   119.4    55.2    19.0
2002 02 25    06 14.00   +29 53.5    0.110    1.044   116.7    57.9    19.0
2002 02 26    06 05.87   +30 50.5    0.108    1.039   113.9    60.7    19.0
2002 02 27    05 57.33   +31 47.7    0.106    1.033   111.0    63.5    19.1
2002 02 28    05 48.36   +32 44.8    0.104    1.028   108.1    66.4    19.1
2002 03 01    05 38.92   +33 41.4    0.102    1.022   105.1    69.4    19.1
2002 03 02    05 29.00   +34 37.1    0.100    1.017   102.1    72.4    19.2
2002 03 03    05 18.58   +35 31.5    0.099    1.011    99.0    75.5    19.2
2002 03 04    05 07.64   +36 24.0    0.097    1.006    95.8    78.6    19.3
2002 03 05    04 56.17   +37 14.0    0.096    1.001    92.6    81.9    19.4
2002 03 06    04 44.18   +38 00.9    0.095    0.996    89.4    85.1    19.5
2002 03 07    04 31.67   +38 44.0    0.094    0.990    86.1    88.4    19.6
2002 03 08    04 18.68   +39 22.7    0.093    0.985    82.8    91.8    19.7
2002 03 09    04 05.23   +39 56.3    0.093    0.980    79.5    95.2    19.8
2002 03 10    03 51.38   +40 24.2    0.092    0.975    76.2    98.6    19.9
2002 03 11    03 37.19   +40 45.7    0.092    0.970    72.8   102.0    20.1
2002 03 12    03 22.75   +41 00.4    0.092    0.965    69.5   105.4    20.2
2002 03 13    03 08.16   +41 07.8    0.092    0.960    66.1   108.8    20.4
2002 03 14    02 53.51   +41 07.9    0.092    0.956    62.8   112.2    20.6
2002 03 15    02 38.92   +41 00.4    0.093    0.951    59.6   115.6    20.8
2002 03 16    02 24.49   +40 45.5    0.093    0.946    56.4   118.9    21.1
2002 03 17    02 10.34   +40 23.4    0.094    0.942    53.3   122.2    21.3
2002 03 18    01 56.55   +39 54.4    0.095    0.937    50.2   125.3    21.6
2002 03 19    01 43.22   +39 19.2    0.096    0.933    47.3   128.4    21.9
2002 03 20    01 30.41   +38 38.3    0.098    0.928    44.5   131.3    22.2
2002 03 21    01 18.17   +37 52.4    0.100    0.924    41.8   134.1    22.6
2002 03 22    01 06.56   +37 02.3    0.102    0.920    39.3   136.7    22.9
2002 03 23    00 55.58   +36 08.6    0.104    0.916    37.0   139.1    23.2
2002 03 24    00 45.26   +35 12.2    0.106    0.912    34.8   141.3    23.6
2002 03 25    00 35.58   +34 13.6    0.109    0.908    32.9   143.3    23.9
2002 03 26    00 26.56   +33 13.5    0.111    0.904    31.2   145.1    24.2
2002 03 27    00 18.16   +32 12.6    0.114    0.900    29.8   146.6    24.5

Timothy B. Spahr             (C) Copyright 2002 MPC           M.P.E.C. 2002-C32

Read MPEC 2002-C31 Read MPEC 2002-C33


Our Web policy. Index to the CBAT/MPC/ICQ pages.


Valid HTML 4.01!